�v������,,���ԉ��x,�����t���O,���Ԏ��x,�����t���O,2F�Q�����x,�����t���O,���ʏ����x,�����t���O,����,�����t���O,,,,
2003/8/1,0:00:00,25.2,0,58.8,0,25.4,0,24.2,0,18.3,0,,,,
2003/8/1,0:10:00,25.2,0,59,0,25.4,0,24.1,0,18.4,0,,,,
2003/8/1,0:20:00,25.3,0,59.1,0,25.4,0,24.1,0,17.9,0,,,,
2003/8/1,0:30:00,25.3,0,59.3,0,25.4,0,24.1,0,17.5,0,,,,
2003/8/1,0:40:00,25.3,0,59.3,0,25.4,0,24.1,0,17.6,0,,,,
2003/8/1,0:50:00,25.3,0,59.5,0,25.4,0,24.1,0,17.7,0,,,,
2003/8/1,1:00:00,25.3,0,59.6,0,25.4,0,24.1,0,17.7,0,,,,
2003/8/1,1:10:00,25.3,0,59.9,0,25.4,0,24.1,0,17.8,0,,,,
2003/8/1,1:20:00,25.2,0,60,0,25.4,0,24.1,0,17.8,0,,,,
2003/8/1,1:30:00,25.2,0,60.1,0,25.4,0,24.1,0,17.9,0,,,,
2003/8/1,1:40:00,25.2,0,60.2,0,25.4,0,24.2,0,17.9,0,,,,
2003/8/1,1:50:00,25.2,0,60.2,0,25.4,0,24.1,0,18,0,,,,
2003/8/1,2:00:00,25.2,0,60.3,0,25.4,0,24.2,0,18,0,,,,
2003/8/1,2:10:00,25.2,0,60.4,0,25.4,0,24.2,0,18,0,,,,
2003/8/1,2:20:00,25.2,0,60.5,0,25.4,0,24.1,0,18.1,0,,,,
2003/8/1,2:30:00,25.1,0,60.5,0,25.4,0,24.2,0,18.1,0
2003/8/1,2:40:00,25.1,0,60.5,0,25.4,0,24.1,0,18.2,0
2003/8/1,2:50:00,25.1,0,60.6,0,25.4,0,24.1,0,18.2,0
2003/8/1,3:00:00,25.1,0,60.6,0,25.3,0,24.1,0,18.2,0
2003/8/1,3:10:00,25,0,60.7,0,25.3,0,24.1,0,18.3,0
2003/8/1,3:20:00,25,0,60.7,0,25.3,0,24.1,0,18.3,0
2003/8/1,3:30:00,25,0,60.7,0,25.3,0,24.1,0,18.3,0
2003/8/1,3:40:00,25,0,60.8,0,25.3,0,24.1,0,18.4,0
2003/8/1,3:50:00,25,0,60.8,0,25.2,0,24.1,0,18.4,0
2003/8/1,4:00:00,24.9,0,60.8,0,25.2,0,24.1,0,18.5,0
2003/8/1,4:10:00,24.9,0,60.8,0,25.2,0,24.1,0,18.5,0
2003/8/1,4:20:00,24.9,0,60.8,0,25.2,0,24.1,0,18.5,0
2003/8/1,4:30:00,24.9,0,60.8,0,25.2,0,24.1,0,18.6,0
2003/8/1,4:40:00,24.9,0,60.9,0,25.1,0,24.1,0,18.6,0
2003/8/1,4:50:00,24.8,0,60.8,0,25.1,0,24,0,18.6,0
2003/8/1,5:00:00,24.8,0,60.8,0,25.1,0,24,0,18.7,0
2003/8/1,5:10:00,24.8,0,60.8,0,25.1,0,24,0,18.7,0
2003/8/1,5:20:00,24.8,0,60.8,0,25.1,0,24,0,18.7,0
2003/8/1,5:30:00,24.8,0,60.8,0,25,0,24,0,18.8,0
2003/8/1,5:40:00,24.7,0,60.8,0,25,0,24,0,18.8,0
2003/8/1,5:50:00,24.7,0,60.8,0,25,0,24,0,18.8,0
2003/8/1,6:00:00,24.7,0,60.8,0,25,0,24,0,18.9,0
2003/8/1,6:10:00,24.7,0,60.7,0,25,0,24,0,18.9,0
2003/8/1,6:20:00,24.7,0,60.7,0,25,0,24,0,18.9,0
2003/8/1,6:30:00,24.7,0,60.8,0,25,0,24,0,18.9,0
2003/8/1,6:40:00,24.7,0,60.6,0,25,0,24,0,19,0
2003/8/1,6:50:00,24.6,0,60.2,0,25,0,24.1,0,19,0
2003/8/1,7:00:00,24.7,0,60,0,25,0,24.1,0,18.3,0
2003/8/1,7:10:00,24.7,0,60.1,0,25,0,24.1,0,18.3,0
2003/8/1,7:20:00,24.7,0,60.1,0,25,0,23.8,0,18.3,0
2003/8/1,7:30:00,24.7,0,60.6,0,24.9,0,23.7,0,17.9,0
2003/8/1,7:40:00,24.7,0,60.4,0,24.9,0,23.7,0,17.9,0
2003/8/1,7:50:00,24.7,0,60.5,0,24.9,0,23.6,0,17.9,0
2003/8/1,8:00:00,24.7,0,60.7,0,24.9,0,23.5,0,18,0
2003/8/1,8:10:00,24.7,0,60.7,0,24.8,0,23.4,0,18,0
2003/8/1,8:20:00,24.7,0,60.8,0,24.8,0,23.2,0,18,0
2003/8/1,8:30:00,24.7,0,60.8,0,24.7,0,23.2,0,18.1,0
2003/8/1,8:40:00,24.7,0,60.8,0,24.5,0,23.1,0,18.1,0
2003/8/1,8:50:00,24.6,0,60.7,0,24.4,0,23.1,0,18.2,0
2003/8/1,9:00:00,24.6,0,60.7,0,24.4,0,23.1,0,18.2,0
2003/8/1,9:10:00,24.6,0,60.7,0,24.4,0,23,0,18.2,0
2003/8/1,9:20:00,24.6,0,60.7,0,24.4,0,23,0,18.3,0
2003/8/1,9:30:00,24.6,0,60.7,0,24.4,0,23,0,18.3,0
2003/8/1,9:40:00,24.6,0,60.7,0,24.4,0,23,0,18.3,0
2003/8/1,9:50:00,24.6,0,60.6,0,24.4,0,23,0,18.4,0
2003/8/1,10:00:00,24.6,0,60.6,0,24.4,0,23,0,18.4,0
2003/8/1,10:10:00,24.6,0,60.6,0,24.4,0,23,0,18.4,0
2003/8/1,10:20:00,24.6,0,60.7,0,24.5,0,23,0,18.5,0
2003/8/1,10:30:00,24.6,0,60.5,0,24.5,0,23,0,18.5,0
2003/8/1,10:40:00,24.6,0,60.4,0,24.6,0,23.1,0,18.5,0
2003/8/1,10:50:00,24.5,0,60.4,0,24.6,0,23.1,0,18.6,0
2003/8/1,11:00:00,24.5,0,60.4,0,24.7,0,23.2,0,18.6,0
2003/8/1,11:10:00,24.6,0,60.3,0,24.7,0,23.2,0,18.6,0
2003/8/1,11:20:00,24.5,0,60.2,0,24.7,0,23.2,0,18.7,0
2003/8/1,11:30:00,24.5,0,60.4,0,24.8,0,23.1,0,18.7,0
2003/8/1,11:40:00,24.5,0,60.4,0,24.8,0,23.2,0,18.7,0
2003/8/1,11:50:00,24.5,0,60.3,0,24.8,0,23.2,0,18.8,0
2003/8/1,12:00:00,24.5,0,60.7,0,24.9,0,23.2,0,18.8,0
2003/8/1,12:10:00,24.5,0,60.7,0,24.9,0,23.2,0,18.8,0
2003/8/1,12:20:00,24.5,0,60.9,0,24.9,0,23.2,0,18.9,0
2003/8/1,12:30:00,24.5,0,60.8,0,25,0,23.3,0,18.9,0
2003/8/1,12:40:00,24.5,0,61.1,0,25,0,23.3,0,18.9,0
2003/8/1,12:50:00,24.5,0,60.9,0,25.1,0,23.3,0,19,0
2003/8/1,13:00:00,24.5,0,60.9,0,25.1,0,23.4,0,19,0
2003/8/1,13:10:00,24.5,0,61.6,0,25.2,0,23.4,0,19,0
2003/8/1,13:20:00,24.5,0,62.2,0,25.2,0,23.4,0,19.1,0
2003/8/1,13:30:00,24.4,0,62.6,0,25.2,0,23.3,0,19.1,0
2003/8/1,13:40:00,24.4,0,62.5,0,25.2,0,23.3,0,19.1,0
2003/8/1,13:50:00,24.4,0,62.7,0,25.2,0,23.4,0,19.2,0
2003/8/1,14:00:00,24.4,0,62.7,0,25.3,0,23.3,0,19.2,0
2003/8/1,14:10:00,24.4,0,62.6,0,25.3,0,23.4,0,19.2,0
2003/8/1,14:20:00,24.4,0,62.9,0,25.4,0,23.4,0,19.3,0
2003/8/1,14:30:00,24.4,0,63,0,25.4,0,23.4,0,19.3,0
2003/8/1,14:40:00,24.3,0,63.1,0,25.5,0,23.4,0,19.4,0
2003/8/1,14:50:00,24.3,0,63.2,0,25.5,0,23.4,0,19.4,0
2003/8/1,15:00:00,24.3,0,63.1,0,25.5,0,23.3,0,19.4,0
2003/8/1,15:10:00,24.2,0,63.4,0,25.5,0,23.3,0,19.5,0
2003/8/1,15:20:00,24.2,0,63.4,0,25.5,0,23.3,0,19.5,0
2003/8/1,15:30:00,24.3,0,63,0,25.5,0,23.3,0,19.5,0
2003/8/1,15:40:00,24.3,0,63,0,25.4,0,23.3,0,19.5,0
2003/8/1,15:50:00,24.3,0,62.5,0,25.4,0,23.3,0,19.6,0
2003/8/1,16:00:00,24.3,0,61.8,0,25.4,0,23.3,0,19.6,0
2003/8/1,16:10:00,24.3,0,62.7,0,25.4,0,23.3,0,19.6,0
2003/8/1,16:20:00,24.3,0,62.8,0,25.3,0,23.3,0,19.7,0
2003/8/1,16:30:00,24.3,0,62.9,0,25.3,0,23.3,0,19.7,0
2003/8/1,16:40:00,24.3,0,63.5,0,25.2,0,23.3,0,19.7,0
2003/8/1,16:50:00,24.2,0,63.4,0,25.2,0,23.3,0,19.8,0
2003/8/1,17:00:00,24.3,0,62.8,0,25.2,0,23.3,0,19.8,0
2003/8/1,17:10:00,24.3,0,62.4,0,25.2,0,23.3,0,19.8,0
2003/8/1,17:20:00,24.3,0,62.2,0,25.2,0,23.4,0,19.9,0
2003/8/1,17:30:00,24.3,0,62,0,25.2,0,23.4,0,19.9,0
2003/8/1,17:40:00,24.3,0,61.9,0,25.2,0,23.4,0,19.9,0
2003/8/1,17:50:00,24.3,0,61.9,0,25.2,0,23.4,0,20,0
2003/8/1,18:00:00,24.3,0,61.9,0,25.2,0,23.4,0,20,0
2003/8/1,18:10:00,24.3,0,62.4,0,25.2,0,23.4,0,20,0
2003/8/1,18:20:00,24.2,0,63.2,0,25.2,0,23.4,0,20.1,0
2003/8/1,18:30:00,24.2,0,63.4,0,25.1,0,23.4,0,20.1,0
2003/8/1,18:40:00,24.1,0,63.6,0,25.1,0,23.4,0,18.7,0
2003/8/1,18:50:00,24.1,0,63.8,0,25,0,23.4,0,18.7,0
2003/8/1,19:00:00,24.1,0,63.9,0,25,0,23.4,0,18.8,0
2003/8/1,19:10:00,24.1,0,64.3,0,25,0,23.4,0,18.8,0
2003/8/1,19:20:00,24,0,64.7,0,25,0,23.4,0,18.9,0
2003/8/1,19:30:00,24,0,64.9,0,24.9,0,23.4,0,18.9,0
2003/8/1,19:40:00,24,0,65.2,0,24.9,0,23.4,0,18.9,0
2003/8/1,19:50:00,23.9,0,65.2,0,24.9,0,23.4,0,19,0
2003/8/1,20:00:00,23.9,0,65.1,0,24.9,0,23.4,0,18.2,0
2003/8/1,20:10:00,23.9,0,64.8,0,24.8,0,23.4,0,18.2,0
2003/8/1,20:20:00,23.9,0,64.8,0,24.8,0,23.4,0,18.3,0
2003/8/1,20:30:00,23.9,0,64.9,0,24.8,0,23.4,0,18.3,0
2003/8/1,20:40:00,23.9,0,64.7,0,24.8,0,23.4,0,18.3,0
2003/8/1,20:50:00,23.9,0,63.9,0,24.7,0,23.4,0,17.9,0
2003/8/1,21:00:00,24,0,63.4,0,24.7,0,23.4,0,17.9,0
2003/8/1,21:10:00,24,0,62.8,0,24.6,0,23.4,0,17.9,0
2003/8/1,21:20:00,24,0,62.7,0,24.6,0,23.5,0,18,0
2003/8/1,21:30:00,24.1,0,63,0,24.6,0,23.4,0,18,0
2003/8/1,21:40:00,24.1,0,63.4,0,24.6,0,23.5,0,18.1,0
2003/8/1,21:50:00,24.1,0,62.4,0,24.6,0,23.5,0,18.1,0
2003/8/1,22:00:00,24.1,0,62.2,0,24.6,0,23.5,0,18.2,0
2003/8/1,22:10:00,24.2,0,62.1,0,24.6,0,23.5,0,18.2,0
2003/8/1,22:20:00,24.2,0,62.2,0,24.6,0,23.5,0,18.3,0
2003/8/1,22:30:00,24.2,0,62.1,0,24.6,0,23.5,0,18.3,0
2003/8/1,22:40:00,24.2,0,62.1,0,24.6,0,23.5,0,18.3,0
2003/8/1,22:50:00,24.2,0,62.6,0,24.6,0,23.5,0,18.4,0
2003/8/1,23:00:00,24.2,0,62.4,0,24.6,0,23.5,0,17.9,0
2003/8/1,23:10:00,24.2,0,62.1,0,24.6,0,23.5,0,17.9,0
2003/8/1,23:20:00,24.3,0,61.9,0,24.6,0,23.5,0,18,0
2003/8/1,23:30:00,24.3,0,61.9,0,24.5,0,23.5,0,18,0
2003/8/1,23:40:00,24.3,0,61.9,0,24.5,0,23.5,0,18.1,0
2003/8/1,23:50:00,24.3,0,61.9,0,24.5,0,23.5,0,18.1,0
2003/8/2,0:00:00,24.3,0,62,0,24.5,0,23.5,0,17.7,0
2003/8/2,0:10:00,24.3,0,62.3,0,24.5,0,23.5,0,17.8,0
2003/8/2,0:20:00,24.3,0,62.1,0,24.5,0,23.5,0,17.8,0
2003/8/2,0:30:00,24.3,0,62.1,0,24.5,0,23.5,0,17.8,0
2003/8/2,0:40:00,24.3,0,62,0,24.5,0,23.4,0,17.9,0
2003/8/2,0:50:00,24.3,0,62,0,24.5,0,23.4,0,17.9,0
2003/8/2,1:00:00,24.3,0,62,0,24.5,0,23.4,0,18,0
2003/8/2,1:10:00,24.3,0,62,0,24.4,0,23.4,0,18,0
2003/8/2,1:20:00,24.3,0,62.1,0,24.4,0,23.4,0,18.1,0
2003/8/2,1:30:00,24.3,0,61.8,0,24.4,0,23.4,0,18.1,0
2003/8/2,1:40:00,24.3,0,61.7,0,24.4,0,23.4,0,18.2,0
2003/8/2,1:50:00,24.3,0,61.7,0,24.4,0,23.4,0,18.2,0
2003/8/2,2:00:00,24.4,0,61.6,0,24.4,0,23.4,0,18.2,0
2003/8/2,2:10:00,24.3,0,61.7,0,24.4,0,23.4,0,18.3,0
2003/8/2,2:20:00,24.3,0,61.9,0,24.4,0,23.4,0,18.3,0
2003/8/2,2:30:00,24.3,0,62,0,24.4,0,23.4,0,18.3,0
2003/8/2,2:40:00,24.3,0,62.3,0,24.4,0,23.4,0,18.4,0
2003/8/2,2:50:00,24.3,0,62.4,0,24.4,0,23.4,0,18.4,0
2003/8/2,3:00:00,24.3,0,62.6,0,24.4,0,23.4,0,18.5,0
2003/8/2,3:10:00,24.3,0,62.5,0,24.4,0,23.4,0,18.5,0
2003/8/2,3:20:00,24.3,0,62.7,0,24.4,0,23.4,0,18.6,0
2003/8/2,3:30:00,24.3,0,62.6,0,24.4,0,23.4,0,18.6,0
2003/8/2,3:40:00,24.3,0,62.7,0,24.4,0,23.4,0,18.6,0
2003/8/2,3:50:00,24.2,0,62.7,0,24.3,0,23.4,0,18.7,0
2003/8/2,4:00:00,24.2,0,62.8,0,24.3,0,23.4,0,18.7,0
2003/8/2,4:10:00,24.2,0,62.7,0,24.3,0,23.4,0,18.7,0
2003/8/2,4:20:00,24.2,0,62.7,0,24.3,0,23.4,0,18.8,0
2003/8/2,4:30:00,24.2,0,62.7,0,24.3,0,23.4,0,18.8,0
2003/8/2,4:40:00,24.2,0,62.7,0,24.3,0,23.4,0,18.8,0
2003/8/2,4:50:00,24.2,0,62.7,0,24.3,0,23.4,0,18.9,0
2003/8/2,5:00:00,24.2,0,62.7,0,24.3,0,23.4,0,18.9,0
2003/8/2,5:10:00,24.1,0,62.7,0,24.3,0,23.3,0,18.9,0
2003/8/2,5:20:00,24.1,0,62.7,0,24.3,0,23.4,0,19,0
2003/8/2,5:30:00,24.1,0,62.8,0,24.3,0,23.3,0,19,0
2003/8/2,5:40:00,24.1,0,62.8,0,24.3,0,23.3,0,19.1,0
2003/8/2,5:50:00,24.1,0,62.8,0,24.3,0,23.3,0,19.1,0
2003/8/2,6:00:00,24.1,0,62.7,0,24.3,0,23.3,0,19.1,0
2003/8/2,6:10:00,24.1,0,62.8,0,24.3,0,23.3,0,19.1,0
2003/8/2,6:20:00,24,0,62.7,0,24.3,0,23.3,0,19.2,0
2003/8/2,6:30:00,24,0,62.7,0,24.3,0,23.3,0,19.2,0
2003/8/2,6:40:00,24,0,62.7,0,24.3,0,23.3,0,19.2,0
2003/8/2,6:50:00,24,0,62.6,0,24.3,0,23.3,0,19.3,0
2003/8/2,7:00:00,24,0,62.7,0,24.3,0,23.3,0,19.3,0
2003/8/2,7:10:00,24,0,62.5,0,24.3,0,23.3,0,19.3,0
2003/8/2,7:20:00,24,0,62.3,0,24.3,0,23.3,0,19.3,0
2003/8/2,7:30:00,24,0,62.4,0,24.3,0,23.3,0,19.4,0
2003/8/2,7:40:00,24,0,61.9,0,24.3,0,23.3,0,19.4,0
2003/8/2,7:50:00,24,0,61.9,0,24.3,0,23.4,0,19.4,0
2003/8/2,8:00:00,24,0,61.8,0,24.3,0,23.3,0,19.5,0
2003/8/2,8:10:00,24,0,61.9,0,24.3,0,23.4,0,19.5,0
2003/8/2,8:20:00,24,0,61.9,0,24.3,0,23.4,0,19.5,0
2003/8/2,8:30:00,24,0,62.6,0,24.3,0,23.4,0,18.4,0
2003/8/2,8:40:00,24,0,62.4,0,24.3,0,23.3,0,18.4,0
2003/8/2,8:50:00,24.1,0,64.5,0,24.4,0,23.2,0,18.5,0
2003/8/2,9:00:00,24.1,0,65.3,0,24.4,0,23.2,0,18.5,0
2003/8/2,9:10:00,24.1,0,65.2,0,24.4,0,23.3,0,18.6,0
2003/8/2,9:20:00,24.1,0,66.1,0,24.4,0,23.3,0,18.6,0
2003/8/2,9:30:00,24.2,0,65.8,0,24.4,0,23.3,0,18.6,0
2003/8/2,9:40:00,24.2,0,65,0,24.5,0,23.3,0,18.6,0
2003/8/2,9:50:00,24.2,0,65,0,24.5,0,23.4,0,18.7,0
2003/8/2,10:00:00,24.2,0,65.2,0,24.5,0,23.4,0,18.7,0
2003/8/2,10:10:00,24.2,0,65.4,0,24.6,0,23.4,0,18.7,0
2003/8/2,10:20:00,24.2,0,66.3,0,24.6,0,23.3,0,18.8,0
2003/8/2,10:30:00,24.2,0,65.9,0,24.7,0,23.3,0,18.1,0
2003/8/2,10:40:00,24.3,0,67.6,0,24.7,0,23.4,0,18.1,0
2003/8/2,10:50:00,24.3,0,66.4,0,24.8,0,23.3,0,17.8,0
2003/8/2,11:00:00,24.3,0,65.5,0,24.8,0,23.2,0,17.8,0
2003/8/2,11:10:00,24.3,0,65.3,0,24.8,0,23.2,0,17.9,0
2003/8/2,11:20:00,24.3,0,65.1,0,24.9,0,23.2,0,17.9,0
2003/8/2,11:30:00,24.3,0,65.2,0,24.9,0,23.2,0,18,0
2003/8/2,11:40:00,24.3,0,64.4,0,24.9,0,23.2,0,18,0
2003/8/2,11:50:00,24.4,0,65,0,24.9,0,23.1,0,18.1,0
2003/8/2,12:00:00,24.4,0,64.7,0,25,0,23.1,0,18.1,0
2003/8/2,12:10:00,24.4,0,64.8,0,25,0,23.1,0,18.1,0
2003/8/2,12:20:00,24.4,0,64.9,0,25,0,23.1,0,18.2,0
2003/8/2,12:30:00,24.4,0,65,0,25.1,0,23.1,0,18.2,0
2003/8/2,12:40:00,24.4,0,64.8,0,25.1,0,23.1,0,18.3,0
2003/8/2,12:50:00,24.4,0,64.8,0,25.1,0,23.1,0,18.3,0
2003/8/2,13:00:00,24.4,0,64.6,0,25.2,0,23.1,0,18.3,0
2003/8/2,13:10:00,24.4,0,66,0,25.2,0,23,0,18.4,0
2003/8/2,13:20:00,24.4,0,64.7,0,25.2,0,23,0,18.4,0
2003/8/2,13:30:00,24.4,0,64.7,0,25.2,0,23,0,18.5,0
2003/8/2,13:40:00,24.4,0,65.5,0,25.2,0,23,0,18.5,0
2003/8/2,13:50:00,24.4,0,69.3,0,25.2,0,23.1,0,18.6,0
2003/8/2,14:00:00,24.3,0,69.7,0,25.3,0,23.1,0,18.6,0
2003/8/2,14:10:00,24.3,0,69.5,0,25.3,0,23.1,0,18.6,0
2003/8/2,14:20:00,24.3,0,70.9,0,25.3,0,23.1,0,18.7,0
2003/8/2,14:30:00,24.2,0,71.7,0,25.3,0,23.1,0,18.7,0
2003/8/2,14:40:00,24.2,0,71.2,0,25.3,0,23.1,0,18.8,0
2003/8/2,14:50:00,24.2,0,70.5,0,25.4,0,23.1,0,18.8,0
2003/8/2,15:00:00,24.2,0,70.2,0,25.4,0,23.1,0,18.8,0
2003/8/2,15:10:00,24.2,0,70.1,0,25.4,0,23.1,0,18.9,0
2003/8/2,15:20:00,24.2,0,70,0,25.4,0,23.1,0,18.9,0
2003/8/2,15:30:00,24.1,0,70.1,0,25.4,0,23,0,18.9,0
2003/8/2,15:40:00,24.1,0,70.2,0,25.4,0,23,0,19,0
2003/8/2,15:50:00,24.1,0,70.6,0,25.4,0,23,0,19,0
2003/8/2,16:00:00,24.1,0,70.7,0,25.4,0,23,0,18.2,0
2003/8/2,16:10:00,24.1,0,71.1,0,25.3,0,23.1,0,18.2,0
2003/8/2,16:20:00,24.1,0,69.8,0,25.3,0,23.1,0,18.3,0
2003/8/2,16:30:00,24.1,0,71.8,0,25.2,0,23.1,0,18.3,0
2003/8/2,16:40:00,24,0,72.2,0,25.1,0,23.1,0,18.4,0
2003/8/2,16:50:00,24,0,72.2,0,25,0,23.1,0,18.4,0
2003/8/2,17:00:00,24,0,72.1,0,25,0,23.1,0,18.4,0
2003/8/2,17:10:00,24,0,71.7,0,25,0,23.1,0,18.5,0
2003/8/2,17:20:00,23.9,0,72,0,24.9,0,23.1,0,18.5,0
2003/8/2,17:30:00,23.9,0,72.2,0,24.9,0,23.1,0,18.6,0
2003/8/2,17:40:00,23.9,0,71.8,0,24.9,0,23.1,0,18.6,0
2003/8/2,17:50:00,23.9,0,71.6,0,24.9,0,23.1,0,18.6,0
2003/8/2,18:00:00,23.9,0,71.3,0,24.9,0,23.1,0,18.7,0
2003/8/2,18:10:00,23.9,0,71.9,0,24.8,0,23.1,0,18.7,0
2003/8/2,18:20:00,23.9,0,71.4,0,24.8,0,23.1,0,18.8,0
2003/8/2,18:30:00,23.8,0,72.2,0,24.7,0,23.1,0,18.8,0
2003/8/2,18:40:00,23.8,0,72.4,0,24.8,0,23,0,18.8,0
2003/8/2,18:50:00,23.8,0,73,0,24.8,0,23,0,18.9,0
2003/8/2,19:00:00,23.8,0,68.9,0,24.8,0,23,0,18.9,0
2003/8/2,19:10:00,23.9,0,67.9,0,24.8,0,22.9,0,19,0
2003/8/2,19:20:00,23.9,0,67.7,0,24.8,0,22.9,0,18.3,0
2003/8/2,19:30:00,23.9,0,67.2,0,24.8,0,22.9,0,18.3,0
2003/8/2,19:40:00,23.9,0,66.8,0,24.8,0,22.9,0,17.8,0
2003/8/2,19:50:00,23.9,0,67,0,24.9,0,22.8,0,17.8,0
2003/8/2,20:00:00,24,0,67.9,0,24.9,0,22.8,0,17.9,0
2003/8/2,20:10:00,24,0,67.6,0,24.9,0,22.8,0,17.9,0
2003/8/2,20:20:00,24,0,67.5,0,24.9,0,22.8,0,18,0
2003/8/2,20:30:00,24,0,68.9,0,24.9,0,22.8,0,18,0
2003/8/2,20:40:00,24.1,0,68,0,24.9,0,22.8,0,17.7,0
2003/8/2,20:50:00,24.1,0,67.9,0,24.9,0,22.7,0,17.8,0
2003/8/2,21:00:00,24.1,0,68.9,0,24.9,0,22.7,0,17.8,0
2003/8/2,21:10:00,24.1,0,68.6,0,24.9,0,22.7,0,17.9,0
2003/8/2,21:20:00,24.1,0,70.7,0,24.9,0,22.7,0,17.7,0
2003/8/2,21:30:00,24.1,0,71,0,24.9,0,22.8,0,17.7,0
2003/8/2,21:40:00,24,0,70.9,0,24.9,0,22.9,0,17.8,0
2003/8/2,21:50:00,23.9,0,71.3,0,24.9,0,22.9,0,17.7,0
2003/8/2,22:00:00,23.9,0,71.1,0,24.9,0,23,0,17.8,0
2003/8/2,22:10:00,23.8,0,71,0,24.9,0,23,0,17.8,0
2003/8/2,22:20:00,23.8,0,71,0,24.8,0,23,0,17.9,0
2003/8/2,22:30:00,23.8,0,70.8,0,24.8,0,23.1,0,17.9,0
2003/8/2,22:40:00,23.7,0,71.1,0,24.8,0,23.1,0,18,0
2003/8/2,22:50:00,23.6,0,70.9,0,24.8,0,23.2,0,18,0
2003/8/2,23:00:00,23.6,0,70.9,0,24.8,0,23.2,0,18.1,0
2003/8/2,23:10:00,23.5,0,70.8,0,24.8,0,23.2,0,18.1,0
2003/8/2,23:20:00,23.5,0,70.8,0,24.8,0,23.2,0,18.1,0
2003/8/2,23:30:00,23.5,0,70.6,0,24.8,0,23.2,0,18.2,0
2003/8/2,23:40:00,23.6,0,70.6,0,24.8,0,23.2,0,18.2,0
2003/8/2,23:50:00,23.6,0,69.8,0,24.8,0,23.2,0,17.9,0
2003/8/3,0:00:00,23.7,0,68.7,0,24.7,0,23.2,0,18,0
2003/8/3,0:10:00,23.7,0,67.5,0,24.7,0,23.3,0,18,0
2003/8/3,0:20:00,23.7,0,66.9,0,24.7,0,23.3,0,18,0
2003/8/3,0:30:00,23.7,0,66.8,0,24.7,0,23.3,0,18.1,0
2003/8/3,0:40:00,23.7,0,66.5,0,24.7,0,23.3,0,18.1,0
2003/8/3,0:50:00,23.7,0,66.4,0,24.7,0,23.3,0,18.2,0
2003/8/3,1:00:00,23.7,0,66.3,0,24.7,0,23.3,0,18.2,0
2003/8/3,1:10:00,23.7,0,66.3,0,24.7,0,23.3,0,18.2,0
2003/8/3,1:20:00,23.7,0,66.2,0,24.7,0,23.3,0,18.3,0
2003/8/3,1:30:00,23.7,0,66,0,24.7,0,23.3,0,18.3,0
2003/8/3,1:40:00,23.7,0,66.1,0,24.7,0,23.4,0,18.4,0
2003/8/3,1:50:00,23.8,0,65.8,0,24.7,0,23.4,0,18.4,0
2003/8/3,2:00:00,23.8,0,65.9,0,24.7,0,23.4,0,18.5,0
2003/8/3,2:10:00,23.8,0,65.9,0,24.7,0,23.4,0,18.5,0
2003/8/3,2:20:00,23.8,0,66,0,24.7,0,23.4,0,18.5,0
2003/8/3,2:30:00,23.8,0,65.8,0,24.7,0,23.4,0,18.6,0
2003/8/3,2:40:00,23.8,0,65.8,0,24.7,0,23.4,0,18.6,0
2003/8/3,2:50:00,23.8,0,65.9,0,24.7,0,23.4,0,18.6,0
2003/8/3,3:00:00,23.8,0,65.8,0,24.7,0,23.4,0,18.7,0
2003/8/3,3:10:00,23.8,0,65.9,0,24.7,0,23.4,0,18.7,0
2003/8/3,3:20:00,23.8,0,65.6,0,24.7,0,23.4,0,18.8,0
2003/8/3,3:30:00,23.8,0,65.5,0,24.7,0,23.4,0,18.8,0
2003/8/3,3:40:00,23.8,0,65.7,0,24.7,0,23.4,0,18.8,0
2003/8/3,3:50:00,23.8,0,65.8,0,24.7,0,23.4,0,18.9,0
2003/8/3,4:00:00,23.8,0,65.9,0,24.7,0,23.4,0,18.9,0
2003/8/3,4:10:00,23.8,0,66.3,0,24.6,0,23.4,0,18.9,0
2003/8/3,4:20:00,23.8,0,66,0,24.6,0,23.4,0,19,0
2003/8/3,4:30:00,23.8,0,66.3,0,24.6,0,23.4,0,19,0
2003/8/3,4:40:00,23.8,0,65.9,0,24.6,0,23.4,0,19,0
2003/8/3,4:50:00,23.8,0,66.4,0,24.6,0,23.4,0,19.1,0
2003/8/3,5:00:00,23.8,0,65.8,0,24.6,0,23.4,0,19.1,0
2003/8/3,5:10:00,23.7,0,65.8,0,24.6,0,23.4,0,19.1,0
2003/8/3,5:20:00,23.8,0,66.3,0,24.6,0,23.4,0,19.2,0
2003/8/3,5:30:00,23.7,0,66.6,0,24.6,0,23.4,0,19.2,0
2003/8/3,5:40:00,23.7,0,65.6,0,24.6,0,23.4,0,19.2,0
2003/8/3,5:50:00,23.7,0,65.6,0,24.6,0,23.4,0,19.3,0
2003/8/3,6:00:00,23.7,0,65.7,0,24.6,0,23.4,0,19.3,0
2003/8/3,6:10:00,23.7,0,66.3,0,24.5,0,23.4,0,19.3,0
2003/8/3,6:20:00,23.7,0,65.5,0,24.5,0,23.4,0,19.4,0
2003/8/3,6:30:00,23.7,0,65.6,0,24.5,0,23.4,0,19.4,0
2003/8/3,6:40:00,23.7,0,65.7,0,24.5,0,23.4,0,19.4,0
2003/8/3,6:50:00,23.7,0,66,0,24.5,0,23.4,0,19.4,0
2003/8/3,7:00:00,23.7,0,65.7,0,24.5,0,23.4,0,19.5,0
2003/8/3,7:10:00,23.7,0,65.9,0,24.5,0,23.4,0,19.5,0
2003/8/3,7:20:00,23.7,0,65.6,0,24.5,0,23.4,0,19.5,0
2003/8/3,7:30:00,23.7,0,66.2,0,24.5,0,23.4,0,18.3,0
2003/8/3,7:40:00,23.7,0,65.7,0,24.5,0,23.4,0,18.5,0
2003/8/3,7:50:00,23.7,0,65.7,0,24.5,0,23.4,0,18.5,0
2003/8/3,8:00:00,23.7,0,65.8,0,24.6,0,23.4,0,17.8,0
2003/8/3,8:10:00,23.7,0,65.8,0,24.6,0,23.4,0,17.9,0
2003/8/3,8:20:00,23.7,0,65.8,0,24.6,0,23.4,0,17.9,0
2003/8/3,8:30:00,23.7,0,66.3,0,24.6,0,23.4,0,18,0
2003/8/3,8:40:00,23.8,0,66.5,0,24.7,0,23.4,0,18,0
2003/8/3,8:50:00,23.8,0,67.4,0,24.7,0,23.4,0,18.1,0
2003/8/3,9:00:00,23.8,0,67.4,0,24.7,0,23.4,0,18.1,0
2003/8/3,9:10:00,23.8,0,68,0,24.7,0,23.4,0,18.1,0
2003/8/3,9:20:00,23.8,0,68.7,0,24.7,0,23.4,0,17.8,0
2003/8/3,9:30:00,23.9,0,69,0,24.7,0,23.4,0,17.8,0
2003/8/3,9:40:00,23.9,0,68.3,0,24.7,0,23.5,0,17.9,0
2003/8/3,9:50:00,23.9,0,68.5,0,24.7,0,23.4,0,17.9,0
2003/8/3,10:00:00,23.9,0,68.4,0,24.7,0,23.5,0,17.9,0
2003/8/3,10:10:00,23.9,0,68.9,0,24.7,0,23.5,0,18,0
2003/8/3,10:20:00,23.9,0,69.3,0,24.7,0,23.5,0,18,0
2003/8/3,10:30:00,24,0,68.8,0,24.7,0,23.5,0,18.1,0
2003/8/3,10:40:00,24,0,68.5,0,24.7,0,23.5,0,18.1,0
2003/8/3,10:50:00,24,0,68.5,0,24.8,0,23.5,0,18.2,0
2003/8/3,11:00:00,24,0,68.8,0,24.8,0,23.5,0,17.8,0
2003/8/3,11:10:00,24,0,68.7,0,24.8,0,23.5,0,17.8,0
2003/8/3,11:20:00,24,0,68.3,0,24.8,0,23.5,0,17.9,0
2003/8/3,11:30:00,24,0,69.3,0,24.8,0,23.5,0,17.9,0
2003/8/3,11:40:00,24.1,0,70.9,0,24.8,0,23.5,0,17.9,0
2003/8/3,11:50:00,24.1,0,69.5,0,24.8,0,23.5,0,17.7,0
2003/8/3,12:00:00,24.1,0,69,0,24.8,0,23.5,0,17.7,0
2003/8/3,12:10:00,24.1,0,68.4,0,24.8,0,23.5,0,17.8,0
2003/8/3,12:20:00,24.1,0,68.1,0,24.9,0,23.5,0,17.8,0
2003/8/3,12:30:00,24.1,0,68,0,24.9,0,23.5,0,17.8,0
2003/8/3,12:40:00,24.1,0,67.9,0,24.9,0,23.5,0,17.9,0
2003/8/3,12:50:00,24.1,0,69.2,0,24.9,0,23.5,0,17.9,0
2003/8/3,13:00:00,24.1,0,68.2,0,24.9,0,23.5,0,18,0
2003/8/3,13:10:00,24.2,0,68.3,0,24.9,0,23.5,0,18,0
2003/8/3,13:20:00,24.2,0,66.1,0,25,0,23.5,0,18.1,0
2003/8/3,13:30:00,24.2,0,66.1,0,25,0,23.5,0,18.1,0
2003/8/3,13:40:00,24.2,0,65.5,0,25,0,23.6,0,18.1,0
2003/8/3,13:50:00,24.2,0,70,0,25,0,23.6,0,18.2,0
2003/8/3,14:00:00,24.3,0,73.5,0,25,0,23.6,0,18.2,0
2003/8/3,14:10:00,24.3,0,72.3,0,25,0,23.6,0,18.2,0
2003/8/3,14:20:00,24.3,0,70.6,0,25.1,0,23.6,0,18,0
2003/8/3,14:30:00,24.4,0,71.2,0,25.1,0,23.7,0,18,0
2003/8/3,14:40:00,24.4,0,70.3,0,25.1,0,23.7,0,18.1,0
2003/8/3,14:50:00,24.4,0,69.3,0,25.1,0,23.7,0,18.1,0
2003/8/3,15:00:00,24.4,0,68.5,0,25.1,0,23.7,0,18.1,0
2003/8/3,15:10:00,24.4,0,68.7,0,25.2,0,23.7,0,18,0
2003/8/3,15:20:00,24.4,0,68.5,0,25.2,0,23.7,0,18,0
2003/8/3,15:30:00,24.4,0,68.5,0,25.2,0,23.7,0,18,0
2003/8/3,15:40:00,24.4,0,68.9,0,25.2,0,23.8,0,18.1,0
2003/8/3,15:50:00,24.4,0,68.5,0,25.2,0,23.8,0,18.1,0
2003/8/3,16:00:00,24.4,0,67.9,0,25.3,0,23.8,0,18.1,0
2003/8/3,16:10:00,24.4,0,67.5,0,25.3,0,23.8,0,18.2,0
2003/8/3,16:20:00,24.4,0,67.4,0,25.3,0,23.8,0,18.2,0
2003/8/3,16:30:00,24.5,0,67.4,0,25.3,0,23.8,0,18.3,0
2003/8/3,16:40:00,24.5,0,67.6,0,25.3,0,23.8,0,18.3,0
2003/8/3,16:50:00,24.5,0,68.1,0,25.4,0,23.8,0,18.3,0
2003/8/3,17:00:00,24.5,0,67.8,0,25.4,0,23.9,0,18.4,0
2003/8/3,17:10:00,24.5,0,67.8,0,25.4,0,23.9,0,18.4,0
2003/8/3,17:20:00,24.5,0,68.4,0,25.4,0,23.9,0,18.1,0
2003/8/3,17:30:00,24.5,0,69.2,0,25.4,0,23.9,0,18.1,0
2003/8/3,17:40:00,24.6,0,69.6,0,25.4,0,23.9,0,18.1,0
2003/8/3,17:50:00,24.6,0,68.7,0,25.4,0,23.9,0,17.7,0
2003/8/3,18:00:00,24.6,0,68.8,0,25.4,0,23.9,0,17.7,0
2003/8/3,18:10:00,24.6,0,68.6,0,25.4,0,23.9,0,17.8,0
2003/8/3,18:20:00,24.7,0,68,0,25.4,0,24,0,17.8,0
2003/8/3,18:30:00,24.7,0,67.7,0,25.4,0,24,0,17.9,0
2003/8/3,18:40:00,24.7,0,67.6,0,25.4,0,23.9,0,17.9,0
2003/8/3,18:50:00,24.7,0,68.2,0,25.4,0,23.9,0,18,0
2003/8/3,19:00:00,24.7,0,69.7,0,25.3,0,24,0,17.7,0
2003/8/3,19:10:00,24.7,0,70.1,0,25.3,0,24,0,17.8,0
2003/8/3,19:20:00,24.8,0,70,0,25.2,0,24,0,17.9,0
2003/8/3,19:30:00,24.8,0,68.4,0,25.2,0,24,0,17.9,0
2003/8/3,19:40:00,24.8,0,68.5,0,25.2,0,24,0,17.9,0
2003/8/3,19:50:00,24.8,0,68.4,0,25.2,0,24,0,18,0
2003/8/3,20:00:00,24.8,0,68.3,0,25.1,0,24,0,18.1,0
2003/8/3,20:10:00,24.8,0,68.6,0,25.1,0,24,0,17.8,0
2003/8/3,20:20:00,24.8,0,68.2,0,25.1,0,24,0,17.9,0
2003/8/3,20:30:00,24.8,0,68.7,0,25,0,24,0,17.9,0
2003/8/3,20:40:00,24.9,0,68.4,0,25,0,24,0,17.8,0
2003/8/3,20:50:00,24.9,0,69.4,0,25,0,24.1,0,17.8,0
2003/8/3,21:00:00,24.9,0,68.4,0,25,0,24.1,0,17.9,0
2003/8/3,21:10:00,24.9,0,68.3,0,24.9,0,24.1,0,17.9,0
2003/8/3,21:20:00,24.9,0,68.1,0,24.9,0,24.1,0,18,0
2003/8/3,21:30:00,24.9,0,68,0,24.9,0,24.1,0,18,0
2003/8/3,21:40:00,24.9,0,67.9,0,24.9,0,24.1,0,18.1,0
2003/8/3,21:50:00,25,0,68.5,0,24.9,0,24.2,0,18.1,0
2003/8/3,22:00:00,25,0,68.1,0,24.9,0,24.2,0,18.1,0
2003/8/3,22:10:00,25,0,68,0,24.8,0,24.2,0,18.2,0
2003/8/3,22:20:00,25,0,67.8,0,24.8,0,24.3,0,18.2,0
2003/8/3,22:30:00,25,0,67.9,0,24.8,0,24.3,0,18.2,0
2003/8/3,22:40:00,25,0,69.3,0,24.8,0,24.3,0,18.3,0
2003/8/3,22:50:00,25,0,68,0,24.8,0,24.4,0,18.2,0
2003/8/3,23:00:00,25,0,68.1,0,24.8,0,24.4,0,18.3,0
2003/8/3,23:10:00,25.1,0,68.5,0,24.8,0,24.5,0,18.3,0
2003/8/3,23:20:00,25.1,0,68.3,0,24.7,0,24.5,0,18.3,0
2003/8/3,23:30:00,25.1,0,68.2,0,24.8,0,24.5,0,18.1,0
2003/8/3,23:40:00,25.1,0,68,0,24.8,0,24.5,0,18.2,0
2003/8/3,23:50:00,25.1,0,68.3,0,24.8,0,24.5,0,18.2,0
2003/8/4,0:00:00,25.1,0,68.1,0,24.8,0,24.5,0,18.3,0
2003/8/4,0:10:00,25.1,0,67.8,0,24.8,0,24.5,0,18.3,0
2003/8/4,0:20:00,25.2,0,67.9,0,24.8,0,24.5,0,18.1,0
2003/8/4,0:30:00,25.2,0,67.7,0,24.8,0,24.5,0,18.2,0
2003/8/4,0:40:00,25.1,0,67.6,0,24.7,0,24.5,0,18.2,0
2003/8/4,0:50:00,25.1,0,67.8,0,24.7,0,24.5,0,18.2,0
2003/8/4,1:00:00,25.1,0,67.8,0,24.7,0,24.5,0,18.3,0
2003/8/4,1:10:00,25.1,0,68,0,24.7,0,24.5,0,18.3,0
2003/8/4,1:20:00,25.1,0,67.9,0,24.7,0,24.5,0,18.3,0
2003/8/4,1:30:00,25.1,0,67.9,0,24.7,0,24.5,0,18.4,0
2003/8/4,1:40:00,25.1,0,67.9,0,24.7,0,24.5,0,18.4,0
2003/8/4,1:50:00,25.1,0,68,0,24.7,0,24.5,0,18.5,0
2003/8/4,2:00:00,25.1,0,67.8,0,24.7,0,24.5,0,18.5,0
2003/8/4,2:10:00,25.1,0,67.8,0,24.7,0,24.5,0,18.5,0
2003/8/4,2:20:00,25.1,0,67.8,0,24.7,0,24.5,0,18.6,0
2003/8/4,2:30:00,25,0,67.7,0,24.7,0,24.5,0,18.6,0
2003/8/4,2:40:00,25,0,67.7,0,24.7,0,24.5,0,18.6,0
2003/8/4,2:50:00,25,0,67.8,0,24.7,0,24.5,0,18.7,0
2003/8/4,3:00:00,25,0,67.8,0,24.7,0,24.5,0,18.7,0
2003/8/4,3:10:00,25,0,67.8,0,24.7,0,24.5,0,18.7,0
2003/8/4,3:20:00,25,0,67.6,0,24.7,0,24.5,0,18.8,0